Deer Park, WA
on Thursday, February 14, 2013

Thursday
Previous Day Next Day
Daily Summary
 ActualAverageRecord
Temperature
Mean Temperature °F 30°F  
Max Temperature 39°F 39°F 44°F (2014)
Min Temperature 14°F 21°F 9°F (2008)
Degree Days
Heating Degree Days 38 35  
Month to date heating degree days 483 498  
Since 1 July heating degree days 4591 4894  
Cooling Degree Days 0 0  
Month to date cooling degree days 0 0  
Year to date cooling degree days 0 0  
Moisture
Dew Point 22°F   
Average Humidity 82    
Maximum Humidity 100    
Minimum Humidity 64    
Precipitation
Precipitation 0.00 in 0.06 in 0.35 in (2007)
Month to date precipitation 0.03 0.90  
Year to date precipitation 1.53 3.53  
Wind
Wind Speed 1 mph   
Max Wind Speed 6 mph   
Max Gust Speed 6 mph   
Visibility 8 miles   
Events Fog   

Key: T is trace of precipitation, MM is missing value
Source: NWS Daily Summary
Time(PST)TemperatureDew PointHumidity Pressure Visibility Wind DirectionWind SpeedGust SpeedPrecipitationEvents Conditions
12:44 AM 19.4°F 17.6°F 93% 30.33 in 1.8 miles Calm Calm - N/A   Partly Cloudy
12:53 AM 18.0°F 16.0°F 92% 30.41 in 1.0 miles Calm Calm - N/A   Mist
1:00 AM 19.4°F 17.6°F 93% 30.34 in 1.2 miles West 3.5 mph - N/A   Partly Cloudy
1:04 AM 21.2°F 19.4°F 93% 30.34 in 4.0 miles Calm Calm - N/A   Partly Cloudy
1:53 AM 18.0°F 16.0°F 92% 30.42 in 9.0 miles Calm Calm - N/A   Clear
2:32 AM 15.8°F 12.2°F 86% 30.35 in 1.5 miles Calm Calm - N/A   Clear
2:41 AM 15.8°F 14.0°F 93% 30.36 in 0.5 miles Calm Calm - N/A Fog Light Freezing Fog
2:53 AM 17.1°F 15.1°F 92% 30.44 in 1.5 miles ENE 5.8 mph - N/A   Clear
2:55 AM 17.6°F 15.8°F 93% 30.36 in 3.0 miles NE 4.6 mph - N/A   Clear
3:53 AM 17.1°F 15.1°F 92% 30.45 in 10.0 miles Calm Calm - N/A   Clear
4:53 AM 19.0°F 17.1°F 92% 30.46 in 10.0 miles Calm Calm - N/A   Clear
5:53 AM 19.0°F 17.1°F 92% 30.48 in 10.0 miles Calm Calm - N/A   Mostly Cloudy
6:53 AM 19.9°F 18.0°F 92% 30.49 in 10.0 miles Calm Calm - N/A   Overcast
7:53 AM 21.9°F 19.9°F 92% 30.51 in 10.0 miles Calm Calm - N/A   Overcast
8:53 AM 26.1°F 25.0°F 96% 30.53 in 10.0 miles Calm Calm - N/A   Overcast
9:53 AM 28.9°F 28.9°F 100% 30.54 in 10.0 miles Calm Calm - N/A   Overcast
10:53 AM 33.1°F 28.0°F 82% 30.54 in 10.0 miles Calm Calm - N/A   Clear
11:53 AM 33.1°F 28.9°F 85% 30.53 in 10.0 miles Calm Calm - N/A   Overcast
12:53 PM 36.0°F 28.9°F 76% 30.52 in 10.0 miles Calm Calm - N/A   Overcast
1:53 PM 37.9°F 28.9°F 70% 30.51 in 10.0 miles Calm Calm - N/A   Overcast
2:53 PM 39.0°F 28.9°F 67% 30.52 in 10.0 miles Calm Calm - N/A   Overcast
3:53 PM 37.0°F 30.0°F 76% 30.53 in 10.0 miles Calm Calm - N/A   Overcast
4:53 PM 37.9°F 28.0°F 68% 30.53 in 10.0 miles Calm Calm - N/A   Overcast
5:53 PM 32.0°F 27.0°F 82% 30.53 in 10.0 miles WNW 4.6 mph - N/A   Clear
6:53 PM 27.0°F 24.1°F 89% 30.55 in 10.0 miles Calm Calm - N/A   Clear
7:53 PM 26.1°F 24.1°F 92% 30.56 in 10.0 miles Calm Calm - N/A   Clear
8:53 PM 23.0°F 21.9°F 96% 30.56 in 10.0 miles Calm Calm - N/A   Clear
9:53 PM 19.9°F 19.0°F 96% 30.58 in 10.0 miles North 3.5 mph - N/A   Clear
10:53 PM 24.1°F 21.9°F 91% 30.59 in 10.0 miles Calm Calm - N/A   Overcast
11:53 PM 26.1°F 23.0°F 88% 30.59 in 10.0 miles Calm Calm - N/A   Overcast
Moon Phase
Feb. 14 Feb. 17 Feb. 25 Mar. 04 Mar. 11
Sunrise:06:57 AM (PST) Moon Rise:08:36 AM (PST)2/14
Sunset:05:11 PM (PST) Moon Set:10:47 PM (PST)2/14

Copyright © 2014 The Weather Underground, Inc.